Location: *
(55.5817°S, 142.4781°W)
Time: 07:21:10
(UTC+00:00)

ARIANE 5 R/B - Pass Details

Date: 29 April 2025
Orbit: 747 x 792 km, 98.8° (Epoch: 23 May)

Event Time Altitude Azimuth Distance (km) Brightness Sun altitude
Rises 14:57:28 0° 357° (N) 3,219 5.7 -16.2°
Reaches altitude 10° 14:59:53 10° 350° (N) 2,296 4.9 -15.9°
Maximum altitude 15:04:41 42° 278° (W) 1,082 2.8 -15.2°
Drops below altitude 10° 15:09:30 10° 207° (SSW) 2,309 4.7 -14.6°
Sets 15:11:56 0° 200° (SSW) 3,240 5.5 -14.2°
